User: anonymous   Login
Location: Deer Lake
(49.1830°N, 57.4330°W)
Time: 18:23:16
(UTC-02:-30)
Language:

NOSS 3-1 (C) - Orbit

View from above orbital plane
View from above orbital plane
View from above satellite
View from above satellite

Ground track
Ground track

The orbit data is extracted from the following two-line orbital elements,

1 26907U 01040C   17110.05295111 0.00000030  00000-0  36190-4 0    02
2 26907  63.4138 177.3165 0368000 358.7844   1.2156 13.41267463    09
Epoch (UTC): 20 April 2017 01:16:14
Eccentricity: 0.0368000
inclination: 63.4138°
perigee height: 829 km
apogee height: 1380 km
right ascension of ascending node: 177.3165°
argument of perigee: 358.7844°
revolutions per day: 13.41267463
mean anomaly at epoch: 1.2156°
orbit number at epoch: 0

The dashed part of the orbit path shows where the satellite is in the earth's shadow,  

DLR